PACCTY Weather Reports


Display with metric or nautical units.
time (UTC)temp
F
wind
direction
speed
MPH
gust
MPH
rain 1hr
in
rain 24hr
in
rain mn
in
humidity
%
barometer
mb
20260831225329 70 198 1.0 11.0 0.00 0.00 0.00 72 1009.2
20260831224829 70 228 4.0 7.0 0.00 0.00 0.00 71 1009.2
20260831223829 70 240 4.0 11.0 0.00 0.00 0.00 72 1009.3
20260831223329 70 184 3.0 10.0 0.00 0.00 0.00 71 1009.3
20260831222829 70 211 5.0 10.0 0.00 0.00 0.00 73 1009.2
20260831222329 70 212 3.0 10.0 0.00 0.00 0.00 72 1009.2
20260831221830 70 218 7.0 7.0 0.00 0.00 0.00 72 1009.2
20260831220829 69 229 4.0 7.0 0.00 0.00 0.00 72 1009.2
20260831220330 69 231 5.0 7.0 0.00 0.00 0.00 73 1009.1
20260831215829 69 225 5.0 7.0 0.00 0.00 0.00 73 1009.2
20260831214830 69 250 5.0 12.0 0.00 0.00 0.00 73 1009.3
20260831214331 69 228 7.0 7.0 0.00 0.00 0.00 73 1009.3
20260831213830 69 236 4.0 9.0 0.00 0.00 0.00 72 1009.3
20260831213329 69 225 4.0 9.0 0.00 0.00 0.00 72 1009.3
20260831212830 69 228 4.0 8.0 0.00 0.00 0.00 74 1009.4
20260831212329 69 231 4.0 8.0 0.00 0.00 0.00 74 1009.4
20260831211829 69 217 5.0 8.0 0.00 0.00 0.00 74 1009.4
20260831210329 68 235 5.0 9.0 0.00 0.00 0.00 75 1009.4
20260831205830 68 222 4.0 9.0 0.00 0.00 0.00 75 1009.4
20260831205329 68 271 3.0 9.0 0.00 0.00 0.00 75 1009.4
20260831204829 68 250 6.0 8.0 0.00 0.00 0.00 75 1009.4
20260831203829 69 222 1.0 16.0 0.00 0.00 0.00 74 1009.4
20260831203329 69 245 4.0 16.0 0.00 0.00 0.00 73 1009.4
20260831202830 69 250 4.0 10.0 0.00 0.00 0.00 73 1009.4
20260831201829 69 224 5.0 10.0 0.00 0.00 0.00 71 1009.5
20260831201331 69 217 2.0 8.0 0.00 0.00 0.00 70 1009.4
20260831200829 69 217 5.0 8.0 0.00 0.00 0.00 70 1009.5
20260831195830 68 232 6.0 6.0 0.00 0.00 0.00 71 1009.4
20260831195329 68 238 3.0 5.0 0.00 0.00 0.00 72 1009.5
20260831194829 68 232 4.0 6.0 0.00 0.00 0.00 71 1009.5
20260831194334 67 232 4.0 6.0 0.00 0.00 0.00 70 1009.5
20260831193829 67 256 3.0 6.0 0.00 0.00 0.00 71 1009.6
20260831193625 67 235 4.0 9.0 0.00 0.00 0.00 69 1009.6
20260831193330 67 231 3.0 9.0 0.00 0.00 0.00 70 1009.6
20260831192829 67 235 4.0 9.0 0.00 0.00 0.00 69 1009.6
20260831192334 68 231 5.0 6.0 0.00 0.00 0.00 68 1009.6
20260831191830 68 219 4.0 8.0 0.00 0.00 0.00 67 1009.5
20260831191331 68 245 3.0 8.0 0.00 0.00 0.00 69 1009.7
20260831190830 68 239 5.0 7.0 0.00 0.00 0.00 69 1009.9
20260831190329 68 211 3.0 6.0 0.00 0.00 0.00 71 1009.9
20260831185830 67 226 4.0 6.0 0.00 0.00 0.00 71 1009.8
20260831185329 67 198 3.0 5.0 0.00 0.00 0.00 71 1009.9
20260831184829 67 208 4.0 7.0 0.00 0.00 0.00 73 1009.8
20260831184329 67 205 5.0 7.0 0.00 0.00 0.00 74 1009.8
20260831183829 67 187 5.0 5.0 0.00 0.00 0.00 74 1009.8
20260831183329 66 226 3.0 7.0 0.00 0.00 0.00 75 1009.9
20260831182830 66 207 4.0 7.0 0.00 0.00 0.00 76 1009.9
20260831182330 66 218 3.0 6.0 0.00 0.00 0.00 75 1009.9
20260831181829 66 224 5.0 5.0 0.00 0.00 0.00 77 1009.7
20260831180829 65 200 3.0 5.0 0.00 0.00 0.00 78 1009.9
20260831180329 65 228 0.0 5.0 0.00 0.00 0.00 79 1010.0
20260831175831 65 240 3.0 5.0 0.00 0.00 0.00 80 1010.0
20260831175330 65 222 2.0 5.0 0.00 0.00 0.00 79 1010.0
20260831174830 65 221 0.0 6.0 0.00 0.00 0.00 79 1010.0
20260831174332 65 228 3.0 6.0 0.00 0.00 0.00 82 1010.0
20260831173829 64 219 4.0 6.0 0.00 0.00 0.00 85 1010.0
20260831173329 63 207 4.0 5.0 0.00 0.00 0.00 87 1010.1
20260831172329 62 233 4.0 5.0 0.00 0.00 0.00 90 1010.1
20260831171829 61 226 3.0 4.0 0.00 0.00 0.00 92 1010.2
20260831171334 61 218 2.0 4.0 0.00 0.00 0.00 94 1010.1
20260831171329 61 218 2.0 4.0 0.00 0.00 0.00 94 1010.1
20260831170829 61 218 0.0 3.0 0.00 0.00 0.00 95 1010.1
20260831170329 60 0 0.0 1.0 0.00 0.00 0.00 96 1010.1
20260831165830 59 0 0.0 0.0 0.00 0.00 0.00 97 1010.1
20260831165329 59 0 0.0 0.0 0.00 0.00 0.00 97 1010.1
20260831164829 58 0 0.0 0.0 0.00 0.00 0.00 97 1010.2
20260831164329 58 0 0.0 0.0 0.00 0.00 0.00 97 1010.1
20260831163830 58 0 0.0 0.0 0.00 0.00 0.00 97 1010.3
20260831163330 57 0 0.0 0.0 0.00 0.00 0.00 98 1010.4
20260831162830 57 0 0.0 0.0 0.00 0.00 0.00 98 1010.5
20260831162329 57 0 0.0 0.0 0.00 0.00 0.00 98 1010.6
20260831161829 56 0 0.0 0.0 0.00 0.00 0.00 98 1010.5
20260831160829 56 0 0.0 0.0 0.00 0.00 0.00 99 1010.5
20260831160329 55 0 0.0 0.0 0.00 0.00 0.00 99 1010.6
20260831155831 55 0 0.0 0.0 0.00 0.00 0.00 99 1010.7
20260831155330 55 0 0.0 0.0 0.00 0.00 0.00 99 1010.8
20260831154829 54 0 0.0 0.0 0.00 0.00 0.00 99 1010.8
20260831153829 54 0 0.0 0.0 0.00 0.00 0.00 99 1010.8
20260831153329 54 0 0.0 0.0 0.00 0.00 0.00 99 1010.9
20260831152829 54 0 0.0 0.0 0.00 0.00 0.00 99 1010.9
20260831151829 53 0 0.0 0.0 0.00 0.00 0.00 99 1010.9
20260831151331 53 0 0.0 0.0 0.00 0.00 0.00 99 1011.0
20260831150829 53 0 0.0 0.0 0.00 0.00 0.00 99 1010.9
20260831150330 53 0 0.0 0.0 0.00 0.00 0.00 99 1010.9
20260831145830 53 0 0.0 0.0 0.00 0.00 0.00 99 1010.9
20260831145330 53 0 0.0 0.0 0.00 0.00 0.00 99 1010.8
20260831144830 53 0 0.0 0.0 0.00 0.00 0.00 99 1010.8
20260831144335 53 0 0.0 0.0 0.00 0.00 0.00 99 1010.7
20260831143829 53 0 0.0 0.0 0.00 0.00 0.00 99 1010.6
20260831142831 53 0 0.0 0.0 0.00 0.00 0.00 99 1010.8
20260831142330 53 0 0.0 0.0 0.00 0.00 0.00 99 1010.7
20260831141829 53 0 0.0 0.0 0.00 0.00 0.00 99 1010.7
20260831140830 53 0 0.0 0.0 0.00 0.00 0.00 99 1010.5
20260831140329 53 0 0.0 0.0 0.00 0.00 0.00 99 1010.6
20260831135830 53 0 0.0 0.0 0.00 0.00 0.00 99 1010.7
20260831135329 53 0 0.0 0.0 0.00 0.00 0.00 99 1010.7
20260831134829 53 0 0.0 0.0 0.00 0.00 0.00 99 1010.7
20260831133830 53 0 0.0 0.0 0.00 0.00 0.00 99 1010.8
20260831133329 53 0 0.0 0.0 0.00 0.00 0.00 99 1010.9
20260831132831 53 0 0.0 0.0 0.00 0.00 0.00 99 1010.9
20260831132329 53 0 0.0 0.0 0.00 0.00 0.00 99 1011.0
20260831131828 53 0 0.0 0.0 0.00 0.00 0.00 99 1010.9
20260831130828 53 0 0.0 0.0 0.00 0.00 0.00 99 1010.9
20260831130328 53 0 0.0 0.0 0.00 0.00 0.00 99 1010.9
20260831125828 53 0 0.0 0.0 0.00 0.00 0.00 99 1010.9
20260831125328 53 0 0.0 0.0 0.00 0.00 0.00 99 1010.9
20260831124829 53 0 0.0 0.0 0.00 0.00 0.00 99 1010.9
20260831123829 53 0 0.0 0.0 0.00 0.00 0.00 99 1011.0
20260831122830 54 0 0.0 0.0 0.00 0.00 0.00 99 1011.0
20260831122329 54 0 0.0 0.0 0.00 0.00 0.00 99 1011.4
20260831121334 54 0 0.0 0.0 0.00 0.00 0.00 99 1011.4
20260831120829 54 0 0.0 5.0 0.00 0.00 0.00 99 1011.5
20260831115829 54 0 1.0 1.0 0.00 0.00 0.00 99 1011.7
20260831115329 54 0 0.0 0.0 0.00 0.00 0.00 99 1011.6
20260831114436 54 0 0.0 0.0 0.00 0.00 0.00 99 1011.5
20260831114328 54 0 0.0 0.0 0.00 0.00 0.00 99 1011.5
20260831113828 54 0 0.0 0.0 0.00 0.00 0.00 99 1011.6
20260831113329 54 0 0.0 0.0 0.00 0.00 0.00 99 1011.5
20260831112830 54 0 0.0 0.0 0.00 0.00 0.00 99 1011.6
20260831112329 54 0 0.0 0.0 0.00 0.00 0.00 98 1011.7
20260831111828 54 0 0.0 0.0 0.00 0.00 0.00 98 1011.6
20260831111330 54 0 0.0 0.0 0.00 0.00 0.00 98 1011.8
20260831110828 54 0 0.0 0.0 0.00 0.00 0.00 98 1011.8
20260831110328 54 0 0.0 0.0 0.00 0.00 0.00 98 1011.8
20260831105830 54 0 0.0 0.0 0.00 0.00 0.00 98 1011.8
20260831105332 54 0 0.0 0.0 0.00 0.00 0.00 98 1011.8
20260831103828 54 0 0.0 2.0 0.00 0.00 0.00 98 1011.9
20260831103329 54 0 0.0 2.0 0.00 0.00 0.00 98 1011.9
20260831102829 54 327 0.0 2.0 0.00 0.00 0.00 98 1011.9
20260831102330 54 0 0.0 0.0 0.00 0.00 0.00 98 1012.0
20260831100829 55 327 0.0 3.0 0.00 0.00 0.00 98 1012.1
20260831100329 55 0 0.0 0.0 0.00 0.00 0.00 98 1012.0
20260831095828 55 0 0.0 0.0 0.00 0.00 0.00 98 1012.1
20260831095328 55 0 0.0 0.0 0.00 0.00 0.00 98 1012.1
20260831093829 55 0 0.0 0.0 0.00 0.00 0.00 98 1012.2
20260831092830 55 0 0.0 0.0 0.00 0.00 0.00 98 1012.4
20260831092329 55 0 0.0 0.0 0.00 0.00 0.00 97 1012.5
20260831090329 55 0 0.0 0.0 0.00 0.00 0.00 97 1012.8
20260831085829 55 0 0.0 0.0 0.00 0.00 0.00 97 1012.9
20260831085329 56 0 0.0 0.0 0.00 0.00 0.00 97 1012.9
20260831084829 56 0 0.0 0.0 0.00 0.00 0.00 97 1012.9
20260831083829 56 0 0.0 0.0 0.00 0.00 0.00 97 1013.0
20260831083329 56 0 0.0 0.0 0.00 0.00 0.00 97 1013.0
20260831082830 56 0 0.0 0.0 0.00 0.00 0.00 96 1013.0
20260831082329 56 0 0.0 0.0 0.00 0.00 0.00 96 1013.1
20260831080828 56 0 0.0 0.0 0.00 0.00 0.00 96 1013.2
20260831075830 56 0 0.0 0.0 0.00 0.00 0.00 96 1013.2
20260831075329 56 0 0.0 0.0 0.00 0.00 0.00 96 1013.3
20260831074829 56 0 0.0 0.0 0.00 0.00 0.00 96 1013.4
20260831074335 57 0 0.0 0.0 0.00 0.00 0.00 96 1013.3
20260831073828 57 0 0.0 0.0 0.00 0.00 0.00 96 1013.4
20260831072829 57 0 0.0 0.0 0.00 0.00 0.00 95 1013.5
20260831072329 57 0 0.0 0.0 0.00 0.00 0.00 95 1013.5
20260831070833 57 0 0.0 0.0 0.00 0.00 0.00 95 1013.6
20260831070328 57 0 0.0 0.0 0.00 0.00 0.00 95 1013.6
20260831065829 57 0 0.0 0.0 0.00 0.00 0.00 95 1013.6
20260831065334 57 0 0.0 0.0 0.00 0.00 0.00 95 1013.7
20260831064830 58 0 0.0 0.0 0.00 0.00 0.00 94 1013.8
20260831063829 58 0 0.0 0.0 0.00 0.00 0.00 94 1013.9
20260831062328 58 0 0.0 0.0 0.00 0.00 0.00 94 1013.9
20260831061828 58 0 0.0 0.0 0.00 0.00 0.00 94 1014.0
20260831055830 58 0 0.0 0.0 0.00 0.00 0.00 93 1014.2
20260831055329 58 0 0.0 0.0 0.00 0.00 0.00 93 1014.2
20260831054830 58 0 0.0 0.0 0.00 0.00 0.00 93 1014.3
20260831054335 58 0 0.0 0.0 0.00 0.00 0.00 93 1014.4
20260831053829 58 0 0.0 0.0 0.00 0.00 0.00 93 1014.4
20260831053328 59 0 0.0 0.0 0.00 0.00 0.00 92 1014.4
20260831052830 59 0 0.0 0.0 0.00 0.00 0.00 92 1014.4
20260831052331 59 0 0.0 0.0 0.00 0.00 0.00 92 1014.4
20260831051829 59 0 0.0 0.0 0.00 0.00 0.00 92 1014.6
20260831051329 59 0 0.0 0.0 0.00 0.00 0.00 92 1014.7
20260831050829 59 0 0.0 0.0 0.00 0.00 0.00 91 1014.7
20260831050329 59 0 0.0 0.0 0.00 0.00 0.00 91 1014.8
20260831045828 59 0 0.0 0.0 0.00 0.00 0.00 91 1014.8
20260831045329 60 0 0.0 0.0 0.00 0.00 0.00 90 1014.8
20260831044830 60 0 0.0 0.0 0.00 0.00 0.00 89 1014.8
20260831044336 60 0 0.0 0.0 0.00 0.00 0.00 88 1014.9
20260831043828 61 0 0.0 0.0 0.00 0.00 0.00 88 1014.8
20260831042830 61 0 0.0 0.0 0.00 0.00 0.00 86 1014.9
20260831042330 61 0 0.0 0.0 0.00 0.00 0.00 86 1015.0
20260831041828 61 0 0.0 0.0 0.00 0.00 0.00 85 1015.0
20260831041333 61 0 0.0 0.0 0.00 0.00 0.00 85 1015.0
20260831035830 61 0 0.0 0.0 0.00 0.00 0.00 85 1015.0
20260831034830 62 0 0.0 0.0 0.00 0.00 0.00 84 1015.0
20260831033828 62 0 0.0 0.0 0.00 0.00 0.00 84 1014.8
20260831033329 62 0 0.0 0.0 0.00 0.00 0.00 84 1014.8
20260831032830 62 0 0.0 0.0 0.00 0.00 0.00 83 1014.8
20260831031828 62 0 0.0 0.0 0.00 0.00 0.00 83 1014.9
20260831030831 62 0 0.0 0.0 0.00 0.00 0.00 83 1014.9
20260831030330 62 0 0.0 0.0 0.00 0.00 0.00 83 1014.9
20260831025830 62 0 0.0 0.0 0.00 0.00 0.00 83 1014.9
20260831024829 62 0 0.0 0.0 0.00 0.00 0.00 82 1014.9
20260831023828 62 0 0.0 0.0 0.00 0.00 0.00 82 1015.0
20260831023329 62 0 0.0 0.0 0.00 0.00 0.00 83 1015.0
20260831022831 62 0 0.0 0.0 0.00 0.00 0.00 82 1015.1
20260831022329 62 0 0.0 0.0 0.00 0.00 0.00 82 1015.1
20260831021828 63 0 0.0 0.0 0.00 0.00 0.00 82 1014.9
20260831021333 63 0 0.0 0.0 0.00 0.00 0.00 82 1015.2
20260831020828 63 0 0.0 0.0 0.00 0.00 0.00 81 1015.2
20260831015830 63 0 0.0 0.0 0.00 0.00 0.00 81 1015.3
20260831015328 63 0 0.0 0.0 0.00 0.00 0.00 81 1015.3
20260831014829 63 0 0.0 0.0 0.00 0.00 0.00 81 1015.2
20260831013828 63 338 3.0 5.0 0.00 0.00 0.00 80 1015.5
20260831013328 63 326 3.0 5.0 0.00 0.00 0.00 80 1015.6
20260831012830 63 327 4.0 5.0 0.00 0.00 0.00 80 1015.6
20260831012329 63 323 3.0 5.0 0.00 0.00 0.00 79 1015.7
20260831011328 63 326 4.0 6.0 0.00 0.00 0.00 78 1015.7
20260831010830 63 323 4.0 6.0 0.00 0.00 0.00 79 1015.8
20260831010330 63 333 4.0 7.0 0.00 0.00 0.00 79 1015.9
20260831005830 63 331 5.0 7.0 0.00 0.00 0.00 79 1016.0
20260831005329 63 331 5.0 7.0 0.00 0.00 0.00 79 1016.1
20260831004829 63 327 5.0 7.0 0.00 0.00 0.00 80 1016.2
20260831004327 63 330 5.0 7.0 0.00 0.00 0.00 79 1016.3
20260831003828 63 320 5.0 8.0 0.00 0.00 0.00 79 1016.4
20260831002830 63 327 5.0 8.0 0.00 0.00 0.00 78 1016.4
20260831002329 63 324 6.0 8.0 0.00 0.00 0.00 78 1016.5
20260831001830 63 327 6.0 7.0 0.00 0.00 0.00 77 1016.4
20260831001332 64 331 6.0 7.0 0.00 0.00 0.00 78 1016.5
20260831000829 64 333 6.0 7.0 0.00 0.00 0.00 77 1016.5
20260831000328 64 331 6.0 7.0 0.00 0.00 0.00 77 1016.6
20260830235829 64 334 6.0 7.0 0.00 0.00 0.00 77 1016.6
20260830235329 64 334 5.0 7.0 0.00 0.00 0.00 76 1016.7
20260830234327 64 331 5.0 8.0 0.00 0.00 0.00 75 1016.8
20260830233828 65 317 5.0 8.0 0.00 0.00 0.00 75 1016.8
20260830232831 65 329 5.0 7.0 0.00 0.00 0.00 74 1016.9
20260830231829 65 326 5.0 7.0 0.00 0.00 0.00 75 1017.0
20260830230328 65 0 5.0 9.0 0.00 0.00 0.00 76 1017.1
20260830225830 65 317 6.0 9.0 0.00 0.00 0.00 75 1017.3